Weather History for KMPV - June, 2012

Change the Weather History Date:

Wednesday, June 13, 2012

  Actual Average Record
Temperature  
Mean Temperature 60 °F 62 °F  
Max Temperature 69 °F 74 °F 89 °F (1949)
Min Temperature 50 °F 51 °F 39 °F (1980)
Degree Days  
Heating Degree Days 4 4  
Month to date heating degree days 74  
Since 1 June heating degree days 74  
Since 1 July heating degree days 8134  
Cooling Degree Days 0 2  
Month to date cooling degree days 5 15  
Year to date cooling degree days 21 25  
Since 1 June cooling degree days 5 15  
Growing Degree Days 12 (Base 50)    
Moisture  
Dew Point 58 °F    
Average Humidity 79    
Maximum Humidity 96    
Minimum Humidity 61    
Precipitation  
Precipitation 0.04 in 0.12 in 0.87 in (1998)
Month to date precipitation 2.68 1.66  
Year to date precipitation 13.01 14.57  
Sea Level Pressure  
Sea Level Pressure 30.00 in    
Wind  
Wind Speed 7 mph (WSW)    
Max Wind Speed 17 mph    
Max Gust Speed 24 mph    
Visibility 10 miles    
Events Rain    
T = Trace of Precipitation, MM = Missing Value Source: NWS Daily Summary

Daily Weather History Graph

Daily Weather History Graph

Search for Another Location

Airport or City:

Trip Planner

Search our weather history database for the weather conditions in past years. The results will help you decide how hot, cold, wet, or windy it might be!

Date:

Astronomy

Jun. 13, 2012 Rise Set
Actual Time 5:06 AM EDT 8:35 PM EDT
Civil Twilight 4:29 AM EDT 9:11 PM EDT
Nautical Twilight 3:41 AM EDT 9:59 PM EDT
Astronomical Twilight 2:40 AM EDT 11:00 PM EDT
Moon 1:27 AM EDT (6/13) 3:10 PM EDT (6/13)
Length of Visible Light 16h 41m
Length of Day
15h 28m
Waning Crescent, 29% of the Moon is Illuminated
Jun 13
Waning Crescent
Jun 19
New
Jun 26
First Quarter
Jul 3
Full
Jul 10
Last Quarter

Hourly Weather History & Observations

Time (EDT) Temp. Dew Point Humidity Pressure Visibility Wind Dir Wind Speed Gust Speed Precip Events Conditions
12:02 AM 62.6 °F 60.8 °F 94% 29.93 in 10.0 mi South 8.1 mph - N/A   Overcast
12:41 AM 62.6 °F 60.8 °F 94% 29.92 in 10.0 mi South 6.9 mph - 0.00 in   Overcast
12:51 AM 62.1 °F 61.0 °F 96% 29.91 in 10.0 mi South 10.4 mph - 0.00 in   Overcast
1:37 AM 62.6 °F 60.8 °F 94% 29.91 in 10.0 mi South 10.4 mph - N/A   Overcast
1:51 AM 62.1 °F 61.0 °F 96% 29.90 in 10.0 mi South 9.2 mph - N/A   Overcast
2:51 AM 62.1 °F 60.1 °F 93% 29.90 in 10.0 mi South 9.2 mph - N/A   Overcast
3:02 AM 62.6 °F 60.8 °F 94% 29.90 in 10.0 mi South 8.1 mph - N/A   Overcast
3:30 AM 62.6 °F 60.8 °F 94% 29.89 in 10.0 mi South 6.9 mph - N/A   Overcast
3:51 AM 62.1 °F 60.1 °F 93% 29.88 in 10.0 mi South 9.2 mph - N/A   Overcast
4:51 AM 62.1 °F 60.1 °F 93% 29.90 in 10.0 mi Calm Calm - 0.00 in Rain Light Rain
5:02 AM 62.6 °F 60.8 °F 94% 29.90 in 10.0 mi SSW 4.6 mph - 0.00 in Rain Light Rain
5:09 AM 62.6 °F 60.8 °F 94% 29.91 in 10.0 mi SSW 5.8 mph - 0.00 in Rain Light Rain
5:26 AM 62.6 °F 60.8 °F 94% 29.91 in 9.0 mi SSW 3.5 mph - 0.02 in Rain Light Rain
5:34 AM 62.6 °F 60.8 °F 94% 29.91 in 10.0 mi South 5.8 mph - 0.02 in Rain Light Rain
5:51 AM 62.1 °F 60.1 °F 93% 29.91 in 10.0 mi South 3.5 mph - 0.02 in   Overcast
6:05 AM 62.6 °F 60.8 °F 94% 29.92 in 10.0 mi Calm Calm - N/A   Overcast
6:18 AM 62.6 °F 60.8 °F 94% 29.93 in 10.0 mi Calm Calm - N/A   Overcast
6:51 AM 62.1 °F 61.0 °F 96% 29.94 in 6.0 mi South 3.5 mph - 0.00 in Rain Light Rain
6:54 AM 62.6 °F 60.8 °F 94% 29.94 in 7.0 mi South 3.5 mph - 0.00 in Rain Light Rain
7:51 AM 62.1 °F 60.1 °F 93% 29.96 in 2.5 mi NW 12.7 mph 20.7 mph 0.02 in Rain Light Rain
8:02 AM 62.6 °F 60.8 °F 94% 29.96 in 6.0 mi NW 9.2 mph 19.6 mph 0.00 in Rain Light Rain
8:25 AM 62.6 °F 60.8 °F 94% 29.97 in 10.0 mi NNW 6.9 mph - 0.00 in   Overcast
8:51 AM 62.1 °F 60.1 °F 93% 29.98 in 10.0 mi NW 9.2 mph - 0.00 in   Overcast
9:51 AM 62.1 °F 57.9 °F 86% 30.01 in 10.0 mi NW 6.9 mph - N/A   Mostly Cloudy
10:51 AM 66.9 °F 59.0 °F 76% 30.03 in 10.0 mi NW 10.4 mph - N/A   Mostly Cloudy
11:04 AM 66.2 °F 57.2 °F 73% 30.03 in 10.0 mi NW 11.5 mph - N/A   Mostly Cloudy
11:51 AM 66.9 °F 55.9 °F 68% 30.04 in 10.0 mi WNW 13.8 mph 19.6 mph N/A   Partly Cloudy
12:51 PM 69.1 °F 55.9 °F 63% 30.05 in 10.0 mi NNW 13.8 mph 23.0 mph N/A   Partly Cloudy
1:51 PM 68.0 °F 55.9 °F 65% 30.06 in 10.0 mi NW 13.8 mph 19.6 mph N/A   Clear
2:51 PM 69.1 °F 55.9 °F 63% 30.07 in 10.0 mi NW 10.4 mph 17.3 mph N/A   Partly Cloudy
3:51 PM 66.0 °F 55.0 °F 68% 30.09 in 10.0 mi North 11.5 mph - N/A   Mostly Cloudy
4:51 PM 64.9 °F 55.0 °F 70% 30.12 in 10.0 mi North 6.9 mph - N/A   Overcast
5:51 PM 64.9 °F 53.1 °F 65% 30.12 in 10.0 mi North 6.9 mph - N/A   Mostly Cloudy
6:51 PM 64.9 °F 52.0 °F 63% 30.14 in 10.0 mi NW 9.2 mph - N/A   Mostly Cloudy
7:51 PM 63.0 °F 51.1 °F 65% 30.16 in 10.0 mi NNW 5.8 mph - N/A   Clear
8:51 PM 57.0 °F 52.0 °F 83% 30.18 in 10.0 mi Calm Calm - N/A   Clear
9:51 PM 54.0 °F 51.1 °F 90% 30.20 in 10.0 mi Calm Calm - N/A   Clear
10:51 PM 54.0 °F 51.1 °F 90% 30.20 in 10.0 mi Calm Calm - N/A   Clear
11:51 PM 52.0 °F 50.0 °F 93% 30.21 in 10.0 mi Calm Calm - N/A   Clear